Find Starlink 1134

NORAD ID: 45048 Int'l Des: 2020-006 Owner: SPXS Country: US Constellation: starlink operational
LEOCIRCULAR

Live Position

Loading 3D Globe...

About Starlink 1134

Description loading...

Upcoming Passes

Passes for default location (London). Set your location on the main map for personalized predictions.

Altitude History

Loading altitude history...

Two-Line Element Set

1 45048U 20006E 26126.55847623 .00084863 00000-0 14016-2 0 9999
2 45048 53.0287 321.5563 0003633 352.0821 8.0129 15.51542394346102
Epoch: May 6, 2026 • Age: 7 hours

Current Status

Altitude 418.6 km
Velocity 7.67 km/s
Sub-Earth Point 52.83°N, 122.88°W
Launch Date Jan 29, 2020
Age 6.2 years
Type internet

Technical Details

Classification Payload
Mass 260.00 kg
Dry Mass 248.00 kg
Total Mass 260.00 kg
Length 0.20 m
Diameter 2.80 m
Span 9.00 m
Shape Box + pan
Manufacturer SPXS
Bus Type Starlink
Phase Status In Orbit
Owner/State SPXS/US

Most Searched